Location: Berlin
(38.3226°N, 75.2177°W)
Time: 16:16:47
(UTC+00:00)

Cosmos 1302 Rocket - Pass Details

Date: 26 October 2020
Orbit: 756 x 777 km, 74.0° (Epoch: 25 November)

Event Time Altitude Azimuth Distance (km) Brightness Sun altitude
Exits shadow 09:13:15 13° 348° (NNW) 2,126 6.2 -25.7°
Maximum altitude 09:17:59 67° 70° (ENE) 838 4.3 -24.8°
Drops below altitude 10° 09:23:12 10° 153° (SSE) 2,310 6.8 -23.8°
Sets 09:25:35 0° 156° (SSE) 3,230 7.5 -23.3°
